Wind_Speed
37 36 39 41 39 38 40 42 46 45 46 43 41 45 47 49 50 49 49 49 50 50 51 52 53 54 54 55 56 56 57 58 60 61 64 66 69 72 73 73 72 72 72 71
40 38 42 44 40 39 40 42 44 46 46 42 44 47 48 49 50 50 50 50 51 52 52 53 54 55 55 56 57 57 58 59 61 62 64 66 69 71 72 72 71 71 70 70
45 43 46 45 39 40 41 42 43 45 45 44 46 47 48 48 49 50 50 51 52 52 53 54 55 56 56 57 57 58 59 60 61 63 65 67 69 70 70 70 70 69 69 68
49 49 51 45 42 42 44 44 44 45 45 46 47 48 47 48 50 51 51 52 53 54 55 56 56 57 58 58 59 59 60 61 62 64 66 68 69 69 69 68 68 68 67 66
52 54 55 48 43 45 48 48 45 48 48 48 49 49 48 50 51 52 53 54 55 56 57 57 58 59 59 59 59 60 61 62 63 65 66 67 67 67 67 67 66 66 66 65
54 57 59 51 48 49 51 51 49 51 51 51 51 51 51 51 52 53 54 56 57 58 58 59 59 60 59 59 60 62 63 63 64 64 65 66 66 66 66 65 65 64 64 63
56 60 60 53 51 52 54 54 53 54 55 56 56 56 56 56 56 57 58 59 60 60 60 60 60 60 60 59 60 62 62 63 63 63 64 64 65 64 64 63 62 62 61 61
58 61 59 55 55 55 56 57 58 59 59 60 61 60 60 60 60 60 60 60 61 61 60 59 59 60 60 60 60 61 62 62 62 62 62 62 62 62 61 61 60 59 59 59
59 60 58 58 58 58 59 61 62 63 62 62 62 61 61 61 61 61 61 61 61 60 60 59 59 59 59 59 60 60 60 60 61 61 61 60 60 58 57 57 58 57 56 56
57 56 56 57 58 59 61 63 64 64 63 61 61 60 59 58 59 60 60 59 59 58 58 58 58 58 58 58 59 59 59 60 60 59 59 58 57 56 55 55 55 54 54 53
49 48 50 51 53 55 58 60 60 60 60 59 59 58 58 57 57 57 56 55 55 55 55 55 55 55 56 57 58 58 58 58 57 57 56 55 54 53 53 53 53 52 51 51
45 43 47 47 48 50 52 53 54 55 55 55 56 55 54 54 54 54 54 53 53 53 53 52 53 53 54 54 54 55 55 56 56 55 54 53 52 50 50 51 50 49 48 48
42 42 43 44 45 46 48 49 50 52 53 53 53 53 53 53 52 51 51 51 52 51 51 52 52 52 52 52 53 53 54 55 55 54 53 51 50 48 48 48 47 47 46 45
39 40 40 41 42 43 43 44 44 46 48 49 50 51 52 52 51 50 51 51 51 51 51 51 51 51 52 52 52 53 53 53 52 51 50 49 48 47 46 45 44 44 43 43
39 40 40 40 39 39 40 40 40 41 42 44 45 46 47 47 47 48 49 50 51 51 51 51 51 51 51 50 50 51 51 51 50 49 48 47 46 45 44 43 42 41 41 41
41 41 42 41 41 41 42 42 42 43 43 44 44 45 46 47 48 49 50 51 52 52 52 53 52 51 50 49 49 50 51 50 49 48 47 46 45 43 42 41 40 39 39 39
43 44 44 44 44 45 46 46 46 46 47 47 47 47 48 49 50 51 52 53 54 54 54 53 52 52 51 51 51 51 51 51 49 48 46 45 43 40 39 38 38 37 37 37
46 46 46 47 47 48 49 49 50 50 51 51 51 52 52 53 54 54 55 56 56 56 56 56 55 55 55 54 52 51 50 49 48 46 44 43 41 39 37 36 35 35 35 35
47 47 49 49 50 51 51 52 53 54 54 55 55 55 56 57 58 59 60 59 59 58 58 59 59 58 57 56 54 53 51 49 47 45 42 41 39 37 35 33 33 33 33 33
47 49 50 51 52 54 54 55 56 56 56 57 58 58 59 61 62 62 61 61 62 62 61 60 60 59 58 57 54 52 50 48 46 43 41 40 37 35 32 31 30 30 30 31
49 50 51 52 53 54 56 57 57 56 57 58 59 60 61 62 63 64 64 63 63 63 62 61 60 59 57 56 53 51 49 47 44 41 39 37 34 32 30 29 28 28 28 28
49 50 51 53 54 55 56 57 57 57 58 59 60 61 62 62 63 62 62 62 61 60 60 59 58 57 55 53 51 49 47 44 41 38 36 34 31 29 28 27 26 25 25 26
48 49 51 52 53 54 54 55 56 57 57 58 59 60 61 61 60 60 58 58 58 58 57 55 54 53 51 50 48 46 44 40 37 35 33 31 29 27 25 24 23 23 23 23
49 49 50 51 52 53 53 53 54 54 55 56 57 58 59 58 57 57 58 57 56 55 54 52 50 48 47 46 43 40 38 36 34 32 31 29 26 24 23 21 21 20 20 20
49 50 51 51 52 51 51 51 52 52 53 54 55 56 57 58 57 56 56 56 55 55 54 51 49 46 43 40 37 34 33 32 31 30 28 25 23 21 20 19 19 18 17 18
50 51 51 51 52 51 51 51 51 51 52 52 53 54 54 55 55 55 55 55 55 53 50 46 43 40 37 34 32 31 30 29 28 27 25 23 21 19 18 17 17 16 15 15
50 50 50 50 50 50 50 50 50 50 50 51 50 51 52 52 52 53 52 51 49 46 43 39 36 33 31 28 26 25 26 26 26 24 23 21 19 17 16 15 14 14 13 13
Wind_Direction
283 284 284 284 285 286 287 288 287 290 289 292 289 284 284 286 289 292 294 295 296 298 300 302 304 306 309 311 313 315 317 318 320 322 324 327 329 332 334 335 337 339 340 342
283 283 282 283 288 290 289 289 289 290 291 293 289 286 287 288 289 291 292 293 294 296 297 300 302 305 307 309 311 313 315 316 318 320 322 325 328 331 333 334 336 338 340 342
284 283 281 283 289 288 288 289 290 291 292 290 288 287 288 288 289 289 290 291 293 294 296 298 301 303 306 308 309 311 313 315 316 318 320 323 326 329 331 333 334 337 339 341
283 283 281 287 288 290 288 287 290 291 289 288 287 287 288 288 287 288 289 289 291 293 295 297 299 301 304 306 307 309 311 313 315 317 319 321 324 327 329 331 333 335 338 340
282 283 284 288 292 291 290 289 292 291 289 288 287 287 286 286 286 287 288 289 290 292 294 296 298 300 302 304 305 307 309 311 313 315 317 320 323 326 328 330 332 334 336 340
281 282 285 291 291 291 289 290 290 288 288 287 287 286 286 285 286 286 287 289 290 292 294 296 298 299 301 302 304 305 307 309 311 313 316 318 321 324 326 328 330 332 335 339
280 282 285 290 290 289 289 290 287 287 287 287 286 286 286 286 286 286 287 289 290 292 294 296 297 299 301 302 303 304 306 308 310 312 314 317 319 322 324 326 328 331 334 337
281 282 287 288 286 285 286 285 285 285 285 285 285 285 286 286 287 287 288 289 290 292 293 295 297 298 300 301 302 304 306 308 310 311 313 315 318 320 322 324 326 329 333 336
281 283 285 285 285 284 284 284 284 284 285 285 286 286 287 287 288 288 289 290 291 293 294 295 296 297 299 300 302 304 305 307 308 310 312 314 317 319 321 323 324 328 331 335
283 284 283 283 283 283 283 283 284 284 285 285 285 286 287 288 289 290 290 291 292 293 294 295 296 297 299 300 301 303 305 306 308 310 311 313 316 318 319 321 323 326 330 334
283 285 283 282 281 280 280 281 283 285 286 287 288 288 288 290 291 292 292 292 293 294 295 296 296 297 298 299 301 303 305 306 308 310 312 313 315 317 318 319 322 324 328 333
286 286 284 286 285 284 284 284 284 284 285 286 287 290 290 291 292 293 293 293 293 294 296 296 297 298 299 300 302 304 305 307 308 310 311 312 314 316 317 318 321 323 327 332
287 286 287 289 288 288 288 288 287 287 287 287 289 290 291 292 293 294 294 294 294 295 295 296 297 298 299 301 302 304 305 307 308 309 310 311 312 314 315 316 319 321 325 330
287 287 288 290 290 291 293 293 292 292 291 290 290 290 291 293 294 294 295 295 295 296 297 298 298 299 299 300 301 302 304 307 308 310 310 310 312 313 314 314 317 320 324 328
287 288 290 291 291 292 293 294 294 295 295 295 295 294 295 296 296 297 297 297 297 298 298 298 299 300 300 301 302 303 304 306 307 308 309 309 311 312 312 313 315 318 322 326
283 285 286 288 289 290 292 293 294 295 296 297 297 297 297 297 298 298 298 298 298 298 298 297 298 298 299 300 301 303 304 304 305 307 307 307 309 311 310 310 313 316 320 324
282 283 284 286 288 290 291 291 292 292 294 295 296 296 297 298 298 299 299 299 299 298 297 296 296 296 297 298 300 301 302 303 303 303 304 305 307 309 308 309 311 314 318 323
279 280 282 284 285 287 288 289 290 291 292 294 295 296 297 298 298 298 298 299 298 297 296 295 294 294 294 295 296 298 300 301 302 301 301 302 303 305 305 306 308 312 316 321
278 279 281 282 284 286 288 289 290 291 293 294 296 297 298 298 298 298 298 298 298 296 295 294 293 292 292 292 292 294 295 296 298 298 298 299 300 302 301 302 306 310 314 319
278 280 281 283 285 287 289 290 292 293 294 296 297 298 299 299 300 300 300 300 299 298 297 295 294 292 290 290 290 290 291 292 293 293 294 294 296 297 297 298 301 306 311 317
280 282 283 285 287 289 291 292 293 294 296 297 298 299 300 301 301 301 301 301 300 299 298 296 294 293 291 289 288 288 288 288 288 288 288 288 290 292 292 294 297 303 308 315
282 283 285 286 288 289 291 292 294 296 297 298 300 301 302 303 303 304 304 304 302 301 300 298 295 293 290 287 286 285 284 284 282 281 281 282 284 286 287 290 293 299 305 313
286 287 288 289 291 292 293 295 296 298 299 301 302 303 304 305 306 305 305 305 304 304 303 301 297 294 290 287 285 283 280 277 274 273 274 274 277 280 282 285 289 295 303 311
288 290 292 293 294 294 296 297 299 300 301 302 304 305 306 306 306 306 307 307 306 306 305 304 300 296 291 288 284 280 275 270 266 266 266 268 270 273 276 279 284 291 300 310
290 292 293 295 296 298 299 300 301 301 302 304 305 306 307 307 308 308 308 308 307 306 305 303 300 296 291 287 281 274 267 262 259 258 258 260 262 265 269 274 280 287 298 309
292 294 295 296 298 299 300 301 302 303 303 305 306 307 308 308 309 309 310 309 308 307 306 303 299 296 291 286 278 268 260 255 252 249 250 252 253 256 262 270 276 284 295 308
293 294 295 297 299 300 301 303 304 305 306 307 309 309 310 310 310 311 312 311 310 309 308 305 302 298 292 285 275 263 254 249 244 241 241 240 242 246 256 265 272 281 293 307
Height
5801 5799 5794 5791 5790 5788 5783 5779 5774 5772 5769 5770 5767 5760 5755 5751 5746 5742 5738 5734 5728 5722 5716 5710 5704 5697 5689 5682 5674 5665 5656 5647 5637 5626 5615 5603 5591 5578 5564 5550 5535 5520 5504 5488
5791 5789 5784 5780 5782 5779 5774 5770 5765 5761 5759 5759 5752 5747 5743 5739 5735 5731 5726 5721 5716 5711 5705 5699 5692 5686 5678 5671 5663 5655 5646 5636 5627 5616 5605 5594 5582 5569 5556 5542 5528 5513 5498 5482
5777 5777 5772 5772 5775 5769 5765 5762 5756 5751 5749 5745 5740 5735 5731 5727 5723 5718 5714 5709 5704 5698 5693 5687 5681 5674 5667 5660 5652 5643 5635 5626 5616 5606 5595 5584 5573 5561 5548 5534 5520 5506 5492 5476
5764 5763 5758 5766 5763 5759 5753 5751 5747 5740 5735 5732 5727 5723 5720 5715 5710 5705 5701 5696 5691 5686 5681 5675 5668 5662 5655 5648 5640 5632 5623 5614 5605 5595 5585 5574 5563 5552 5540 5527 5513 5500 5486 5471
5751 5746 5744 5752 5753 5746 5739 5738 5736 5726 5722 5718 5714 5711 5708 5702 5697 5692 5687 5683 5678 5673 5668 5662 5656 5649 5643 5636 5628 5620 5611 5603 5594 5584 5574 5564 5553 5542 5531 5519 5506 5493 5480 5466
5739 5732 5730 5741 5738 5731 5726 5724 5721 5712 5707 5703 5699 5697 5694 5689 5684 5679 5674 5669 5664 5660 5655 5649 5642 5636 5630 5623 5615 5607 5599 5591 5582 5573 5563 5553 5543 5533 5523 5511 5499 5487 5474 5461
5726 5719 5718 5727 5723 5716 5712 5709 5703 5698 5693 5689 5684 5681 5678 5674 5670 5665 5660 5655 5650 5646 5641 5635 5628 5622 5616 5609 5602 5594 5586 5578 5570 5561 5552 5543 5534 5524 5514 5503 5492 5480 5469 5456
5713 5707 5708 5712 5705 5702 5697 5691 5687 5683 5679 5673 5669 5666 5662 5658 5654 5650 5645 5641 5636 5631 5626 5621 5614 5608 5602 5596 5588 5581 5573 5566 5557 5549 5541 5532 5524 5515 5505 5495 5484 5473 5462 5450
5698 5696 5696 5692 5689 5685 5680 5675 5670 5666 5663 5658 5653 5650 5647 5643 5640 5635 5630 5626 5621 5616 5612 5607 5600 5594 5588 5582 5575 5568 5560 5553 5546 5538 5530 5522 5514 5505 5496 5487 5477 5467 5456 5444
5682 5681 5681 5677 5672 5668 5663 5657 5653 5649 5646 5642 5637 5634 5631 5628 5624 5619 5615 5610 5605 5601 5597 5592 5586 5580 5574 5568 5561 5555 5548 5541 5534 5526 5519 5511 5504 5496 5488 5479 5470 5460 5450 5439
5666 5667 5663 5660 5656 5651 5646 5641 5637 5634 5630 5626 5621 5618 5616 5612 5609 5604 5600 5596 5591 5586 5582 5577 5572 5566 5560 5554 5548 5542 5536 5529 5522 5515 5508 5501 5494 5486 5479 5471 5462 5453 5444 5434
5653 5652 5646 5643 5639 5635 5630 5626 5622 5618 5615 5612 5607 5603 5600 5597 5593 5590 5586 5582 5577 5572 5568 5563 5558 5553 5547 5541 5535 5530 5524 5518 5511 5504 5498 5491 5484 5477 5470 5463 5455 5446 5438 5429
5639 5636 5631 5628 5623 5619 5615 5611 5608 5604 5600 5597 5593 5589 5585 5582 5579 5575 5571 5567 5563 5559 5554 5549 5545 5539 5534 5528 5523 5517 5512 5506 5500 5493 5487 5481 5475 5468 5462 5455 5448 5440 5432 5423
5627 5623 5619 5615 5611 5607 5603 5599 5595 5591 5587 5583 5579 5576 5572 5569 5566 5562 5558 5553 5549 5545 5541 5536 5531 5526 5521 5516 5510 5505 5499 5494 5488 5482 5476 5471 5465 5459 5453 5447 5441 5433 5426 5418
5616 5612 5608 5604 5600 5596 5592 5588 5584 5580 5575 5571 5567 5563 5560 5556 5553 5549 5545 5540 5536 5532 5527 5522 5518 5513 5508 5503 5497 5492 5487 5481 5476 5471 5466 5461 5456 5451 5445 5439 5434 5427 5420 5413
5605 5601 5597 5593 5590 5586 5582 5578 5574 5569 5565 5561 5557 5553 5549 5545 5542 5538 5533 5528 5523 5519 5514 5509 5504 5500 5495 5490 5485 5480 5475 5470 5465 5460 5456 5451 5446 5441 5436 5432 5426 5420 5414 5407
5593 5589 5586 5582 5578 5574 5570 5566 5562 5558 5554 5550 5546 5542 5538 5534 5529 5525 5520 5514 5509 5504 5499 5494 5490 5485 5481 5477 5472 5468 5463 5458 5454 5450 5445 5441 5437 5433 5428 5424 5419 5414 5408 5402
5580 5577 5573 5570 5566 5562 5558 5554 5550 5546 5542 5538 5534 5530 5525 5520 5515 5511 5506 5500 5495 5489 5483 5477 5473 5469 5465 5461 5457 5453 5449 5445 5442 5438 5434 5430 5427 5424 5420 5416 5412 5407 5402 5396
5566 5563 5560 5556 5553 5549 5545 5541 5537 5533 5529 5524 5520 5516 5511 5505 5500 5495 5489 5484 5477 5472 5467 5460 5455 5451 5447 5444 5441 5438 5435 5432 5429 5426 5423 5420 5417 5414 5411 5408 5405 5401 5396 5391
5552 5549 5546 5542 5539 5535 5531 5527 5522 5519 5514 5509 5505 5500 5496 5490 5483 5478 5472 5466 5459 5452 5447 5441 5436 5431 5428 5425 5423 5421 5419 5417 5415 5413 5411 5409 5407 5405 5403 5400 5397 5394 5390 5385
5538 5535 5532 5529 5525 5521 5517 5512 5508 5504 5500 5494 5489 5484 5479 5473 5466 5459 5453 5448 5441 5432 5426 5420 5414 5410 5407 5405 5404 5403 5402 5401 5401 5400 5399 5398 5397 5396 5394 5392 5390 5387 5383 5379
5524 5521 5518 5514 5511 5507 5503 5498 5493 5489 5485 5479 5473 5467 5461 5456 5449 5442 5435 5427 5420 5413 5406 5399 5393 5389 5386 5385 5385 5385 5385 5385 5386 5386 5386 5387 5386 5386 5385 5384 5383 5380 5377 5374
5510 5507 5504 5500 5496 5493 5489 5484 5479 5474 5469 5464 5457 5451 5444 5438 5431 5424 5419 5411 5402 5395 5387 5381 5375 5370 5368 5367 5367 5368 5369 5370 5371 5373 5374 5375 5376 5377 5377 5376 5375 5374 5371 5368
5496 5493 5489 5486 5482 5478 5475 5471 5465 5460 5454 5448 5442 5434 5428 5422 5416 5408 5400 5394 5386 5378 5371 5365 5359 5355 5352 5351 5351 5352 5353 5355 5358 5360 5362 5364 5366 5368 5369 5369 5369 5367 5365 5363
5481 5478 5475 5471 5468 5464 5460 5456 5452 5447 5441 5435 5428 5420 5412 5405 5399 5393 5386 5378 5370 5362 5356 5350 5344 5340 5338 5337 5337 5338 5339 5342 5345 5349 5352 5355 5357 5359 5361 5362 5362 5361 5360 5358
5467 5464 5461 5457 5453 5450 5446 5442 5438 5432 5427 5421 5415 5407 5399 5391 5384 5377 5370 5362 5354 5346 5339 5334 5330 5327 5325 5324 5324 5325 5328 5331 5334 5338 5342 5346 5349 5352 5354 5355 5356 5355 5354 5353
5453 5450 5447 5444 5440 5436 5432 5428 5423 5418 5412 5406 5401 5394 5386 5379 5371 5363 5356 5348 5340 5333 5327 5322 5318 5315 5313 5313 5313 5315 5317 5321 5325 5330 5334 5338 5342 5345 5348 5349 5350 5350 5349 5348